This demonstration page uses our WeatherBlox Daily Observations layout. Learn more.

Left ArrowRight Arrow

44.8408, -93.29828

Hourly Observations for July 20, 2022

Temp ( °F °C ) Dew Point ( °F °C ) Humidity (%) Winds ( mph kmh ) Pressure ( in mb ) Visibility ( mi km ) Precip ( " mm )
12:53 am 00:53 Mostly Clear 75 23.9 57 13.9 54 54 WSW 13 20 29.51 999 10 16 0.00 0.00
1:53 am 01:53 Mostly Clear 74 23.3 59 15 60 60 W 12 19 29.50 999 10 16 0.00 0.00
2:53 am 02:53 Mostly Clear 74 23.3 61 16.1 64 64 W 15 24 29.49 999 10 16 0.00 0.00
3:53 am 03:53 Mostly Cloudy 74 23.3 62 16.7 67 67 W 17 28 29.49 999 10 16 0.00 0.00
4:53 am 04:53 Mostly Cloudy 74 23.3 61 16.1 64 64 WNW 17 28 29.52 1000 10 16 0.00 0.00
5:53 am 05:53 Partly Cloudy 73 22.8 61 16.1 66 66 W 15 24 29.52 1000 10 16 0.00 0.00
6:53 am 06:53 Mostly Cloudy 73 22.8 62 16.7 69 69 WNW 15 24 29.54 1001 10 16 0.00 0.00
7:04 am 07:04 Cloudy 73 22.8 62 16.7 69 69 WNW 16 26 29.55 1001 10 16 0.00 0.00
7:47 am 07:47 Cloudy 73 23 63 17 69 69 WNW 16 26 29.56 1001 10 16 0.00 0.00
7:53 am 07:53 Cloudy 73 22.8 62 16.7 69 69 WNW 18 30 29.57 1001 10 16 0.00 0.00
8:43 am 08:43 Cloudy 74 23.3 62 16.7 67 67 WNW 16 26 29.58 1002 10 16 0.00 0.00
8:53 am 08:53 Cloudy 74 23.3 62 16.7 67 67 WNW 20 31 29.59 1002 10 16 0.00 0.00
9:09 am 09:09 Mostly Cloudy 75 23.9 62 16.7 64 64 WNW 18 30 29.59 1002 10 16 0.00 0.00
9:53 am 09:53 Mostly Cloudy 78 25.6 62 16.7 58 58 NW 18 30 29.60 1002 10 16 0.00 0.00
10:53 am 10:53 Mostly Sunny 84 28.9 60 15.6 44 44 WNW 18 30 29.60 1002 10 16 0.00 0.00
11:53 am 11:53 Mostly Sunny 86 30 57 13.9 37 37 NW 21 33 29.62 1003 10 16 0.00 0.00
12:53 pm 12:53 Mostly Sunny 86 30 56 13.3 36 36 NW 25 41 29.62 1003 10 16 0.00 0.00
1:53 pm 13:53 Partly Cloudy 87 30.6 53 11.7 31 31 NW 22 35 29.63 1003 10 16 0.00 0.00
2:53 pm 14:53 Partly Cloudy 88 31.1 51 10.6 28 28 NW 22 35 29.64 1004 10 16 0.00 0.00
3:53 pm 15:53 Partly Cloudy 89 31.7 50 10 26 26 NW 25 41 29.65 1004 10 16 0.00 0.00
4:53 pm 16:53 Partly Cloudy 88 31.1 51 10.6 28 28 WNW 17 28 29.66 1004 10 16 0.00 0.00
5:53 pm 17:53 Partly Cloudy 88 31.1 56 13.3 34 34 NW 23 37 29.66 1005 10 16 0.00 0.00
6:53 pm 18:53 Partly Cloudy 87 30.6 57 13.9 36 36 NW 20 31 29.67 1005 10 16 0.00 0.00
7:53 pm 19:53 Mostly Sunny 86 30 58 14.4 39 39 NW 13 20 29.68 1005 10 16 0.00 0.00
8:53 pm 20:53 Mostly Clear 83 28.3 60 15.6 46 46 WNW 9 15 29.69 1005 10 16 0.00 0.00
9:53 pm 21:53 Mostly Clear 82 27.8 60 15.6 47 47 W 9 15 29.71 1006 10 16 0.00 0.00
10:53 pm 22:53 Mostly Clear 80 26.7 60 15.6 51 51 W 7 11 29.71 1006 10 16 0.00 0.00
11:53 pm 23:53 Mostly Clear 79 26.1 61 16.1 54 54 W 7 11 29.72 1006 10 16 0.00 0.00

Powered by AerisWeather